Regional Weather Roundup
Issued by NWS

Home | Current Version | Previous Version | Graphics & Text | Print | Product List | Glossary On
Versions: 1 2 3 4 5 6 7 8 9 10 11 12 13 14 15 16 17 18 19 20 21 22 23 24 25 26 27 28 29 30 31 32 33 34 35 36 37 38 39 40 41 42 43 44 45 46 47 48 49 50
000
ASUS43 KIND 301709
RWRIN

WEATHER ROUNDUP FOR INDIANA
NATIONAL WEATHER SERVICE INDIANAPOLIS IN
100 PM EDT SUN AUG 30 2015

NOTE: "FAIR" INDICATES FEW OR NO CLOUDS BELOW 12,000 FEET WITH NO
SIGNIFICANT WEATHER AND/OR OBSTRUCTIONS TO VISIBILITY.

* - STATION DOES NOT REPORT WEATHER SUCH AS PRECIPITATION OR FOG.

+ - STATION NOT QUALITY CONTROLLED BY THE NATIONAL WEATHER SERVICE.
    USE DATA WITH CAUTION...ESPECIALLY DEWPOINT AND RELATIVE
    HUMIDITY OBSERVATIONS.

INZ001>003-010>013-019-020-301800-
NORTHWEST INDIANA

CITY           SKY/WX    TMP DP  RH WIND       PRES   REMARKS
GARY /AIRPORT/ MOSUNNY   73  63  68 N7        30.09S
KNOX *+        CLOUDY    70  70 100 CALM      30.08S
LA PORTE +     CLOUDY    75  70  86 CALM      30.09S HAZE
MICHIGAN CITY+ CLOUDY    72  63  73 NW5       30.09S
MONTICELLO +   PTSUNNY   78  71  78 CALM      30.07S
RENSSELAER +   CLOUDY    72  72 100 CALM      30.09S FOG
VALPARAISO     CLOUDY    74  67  78 S5        30.09S

$$

LMZ046-743>745-301800-
SOUTHERN LAKE MICHIGAN

STATION/POSITION TIME  TEMP    WIND        PRES    WAVE
                       AIR SEA DIR/SP/G            HT
                 (UTC) (F)     (DEG/KT/KT) (MB)    (FT)
BURNS HARBOR     1600   69     320/  4/  5 1019.3R
MICHIGAN CITY    1600   69     250/  4/  5   N/A
5NW MICH CITY    1700   70 72  300/  4/  6   N/A     1

$$

INZ004-005-014>016-021>024-301800-
NORTH CENTRAL INDIANA

CITY           SKY/WX    TMP DP  RH WIND       PRES   REMARKS
GOSHEN         CLOUDY    75  69  81 W5        30.08S
LOGANSPORT +   MOSUNNY   81  61  50 SW8       30.08F
PERU/GRISSOM   SUNNY     81  66  58 SW13      30.07F
ROCHESTER +    SUNNY     81  70  69 SW5       30.08F
SOUTH BEND     CLOUDY    72  67  84 CALM      30.09S
WARSAW +       PTSUNNY   77  68  73 W5        30.08F

$$

INZ006>009-017-018-025>027-301800-
NORTHEAST INDIANA

CITY           SKY/WX    TMP DP  RH WIND       PRES   REMARKS
ANGOLA *+      PTSUNNY   81  72  74 SW8       30.07F
AUBURN +       MOSUNNY   79  66  65 SW5       30.08F
FORT WAYNE     MOSUNNY   81  66  60 SW9       30.08F
HUNTINGTON +   SUNNY     81  60  48 SW6       30.08S

$$

INZ028-029-035-036-043>045-051>053-301800-
WEST CENTRAL INDIANA

CITY           SKY/WX    TMP DP  RH WIND       PRES   REMARKS
CRAWFORDSVL +  MOSUNNY   78  62  57 SW7       30.09S
GREENCASTLE +  MOSUNNY   81  59  47 W5        30.10S
LAFAYETTE      PTSUNNY   81  67  62 SW8       30.07S
TERRE HAUTE    SUNNY     83  65  54 SW12      30.09S

$$

INZ030>032-037>040-046>048-054>057-064-065-301800-
CENTRAL INDIANA

CITY           SKY/WX    TMP DP  RH WIND       PRES   REMARKS
FRANKFORT +    SUNNY     81  68  63 S9        30.10F
GREENWOOD *+   SUNNY     82  63  51 W7        30.10S
INDIANAPOLIS   MOSUNNY   83  62  49 S10       30.08F
-EAGLE CREEK   SUNNY     83  64  52 VRB6      30.09S
KOKOMO *+      SUNNY     82  66  57 SW10      30.08F
MARION +       SUNNY     81  55  41 SW10      30.09F
MT COMFORT *+  MOSUNNY   84  61  45 SW10      30.09F
SHELBYVILLE    MOSUNNY   84  69  60 S7        30.09F
ZIONSVILLE +   MOSUNNY   83  62  48 SW6       30.10F

$$

INZ033-034-041-042-049-050-058-059-301800-
EAST CENTRAL INDIANA

CITY           SKY/WX    TMP DP  RH WIND       PRES   REMARKS
MUNCIE         MOSUNNY   79  67  66 W12       30.09F

$$

INZ060-061-067>069-081>083-085>088-301800-
SOUTHWEST INDIANA

CITY           SKY/WX    TMP DP  RH WIND       PRES   REMARKS
EVANSVILLE     PTSUNNY   84  70  62 S7        30.10F
HUNTINGBURG *+ MOSUNNY   84  70  61 SE5       30.10F
WASHINGTON +   MOSUNNY   83  61  47 S6        30.09F

$$

INZ062-063-066-070>080-084-089>092-301800-
SOUTH CENTRAL AND SOUTHEAST INDIANA

CITY           SKY/WX    TMP DP  RH WIND       PRES   REMARKS
BLOOMINGTON    SUNNY     83  66  56 SW7       30.10F
MADISON *+     MOSUNNY   81  66  61 CALM      30.13F
NORTH VERNON + MOSUNNY   82  70  65 SW5       30.12F
SEYMOUR +      MOSUNNY   84  66  54 CALM      30.10F

$$



USA.gov is the U.S. government's official web portal to all federal, state and local government web resources and services.